Date String (YYYY-MM-DD hh:mm:ss) UTC,Instrument flags,Ambient pressure (hPa),Sample flow (lpm),Bypass flow (lpm),Sample temperature (°C),Ambient temperature (°C),ASC tube jacket temperature (°C),LED temperature (°C),Box temperature (°C),Sample RH (%),Span deviation,Mass concentration (μg/m³),Mass concentration (μg/m³),Mass concentration (μg/m³)
DateTimeUTC,F1_M11,P_M11,Q1_M11,Q2_M11,T1_M11,T2_M11,T3_M11,T4_M11,T5_M11,U1_M11,ZSPAN_M11,X0_M11,X2_M11,X1_M11
2021-10-31 17:00:00,,0832.0,4.99,0.00,26.1,25.2,00.0,35.1,27.9,16.8,0000.0,0009.15,0003.45,0002.98
2021-10-31 17:01:00,,0832.1,5.01,0.00,26.1,25.2,00.0,35.1,27.9,16.8,0000.0,0009.23,0003.49,0003.03
2021-10-31 17:02:00,,0832.1,5.00,0.00,26.1,25.2,00.0,35.1,27.9,16.8,0000.0,0009.12,0003.53,0003.08
2021-10-31 17:03:00,,0832.1,4.99,0.00,26.1,25.2,00.0,35.1,27.9,16.7,0000.0,0008.74,0003.53,0003.11
2021-10-31 17:04:00,,0832.0,5.00,0.00,26.0,25.2,00.0,35.1,27.9,16.8,0000.0,0007.09,0003.54,0003.13
2021-10-31 17:05:00,,0831.9,4.98,0.00,26.0,25.2,00.0,35.1,27.9,16.8,0000.0,0006.26,0003.53,0003.13
2021-10-31 17:06:00,,0831.9,4.99,0.00,26.0,25.2,00.0,35.1,27.9,16.9,0000.0,0006.29,0003.55,0003.15
2021-10-31 17:07:00,,0831.9,5.00,0.00,26.0,25.2,00.0,35.1,27.8,16.8,0000.0,0005.98,0003.59,0003.16
2021-10-31 17:08:00,,0831.9,5.00,0.00,26.0,25.2,00.0,35.1,27.9,16.7,0000.0,0006.87,0003.59,0003.18
2021-10-31 17:09:00,,0831.9,5.00,0.00,26.0,25.2,00.0,35.1,27.9,16.7,0000.0,0006.77,0003.60,0003.20
2021-10-31 17:10:00,,0832.0,5.00,0.00,26.0,25.2,00.0,35.1,27.9,16.8,0000.0,0006.71,0003.59,0003.20
2021-10-31 17:11:00,,0832.0,5.00,0.00,26.0,25.2,00.0,35.1,27.9,16.8,0000.0,0006.26,0003.59,0003.20
2021-10-31 17:12:00,,0832.0,5.01,0.00,26.0,25.2,00.0,35.1,27.9,16.7,0000.0,0006.21,0003.59,0003.21
2021-10-31 17:13:00,,0831.9,5.00,0.00,26.0,25.2,00.0,35.1,27.9,16.8,0000.0,0006.31,0003.60,0003.22
2021-10-31 17:14:00,,0831.9,5.00,0.00,26.0,25.2,00.0,35.1,27.9,16.8,0000.0,0006.49,0003.62,0003.22
2021-10-31 17:15:00,,0831.9,5.00,0.00,26.0,25.2,00.0,35.1,27.9,16.8,0000.0,0006.61,0003.63,0003.24
2021-10-31 17:16:00,,0832.0,5.00,0.00,26.1,25.2,00.0,35.1,27.9,16.8,0000.0,0006.93,0003.68,0003.25
2021-10-31 17:17:00,,0831.9,5.00,0.00,26.1,25.2,00.0,35.1,27.9,16.7,0000.0,0007.40,0003.71,0003.26
2021-10-31 17:18:00,,0831.9,5.01,0.00,26.1,25.2,00.0,35.1,27.9,16.7,0000.0,0007.50,0003.72,0003.26
2021-10-31 17:19:00,,0831.7,4.99,0.00,26.1,25.2,00.0,35.1,27.9,16.7,0000.0,0007.19,0003.75,0003.26
2021-10-31 17:20:00,,0831.8,5.00,0.00,26.0,25.2,00.0,35.1,27.9,16.8,0000.0,0007.24,0003.76,0003.25
2021-10-31 17:21:00,,0831.8,5.01,0.00,26.1,25.2,00.0,35.1,27.9,16.7,0000.0,0007.31,0003.76,0003.26
2021-10-31 17:22:00,,0831.8,5.00,0.00,26.0,25.2,00.0,35.1,27.9,16.6,0000.0,0007.41,0003.77,0003.26
2021-10-31 17:23:00,,0831.8,5.00,0.00,26.0,25.2,00.0,35.1,27.9,16.6,0000.0,0007.44,0003.78,0003.25
2021-10-31 17:24:00,,0831.8,5.00,0.00,26.0,25.2,00.0,35.1,27.8,16.7,0000.0,0007.76,0003.78,0003.23
2021-10-31 17:25:00,,0831.8,4.99,0.00,26.0,25.2,00.0,35.1,27.9,16.7,0000.0,0008.20,0003.78,0003.21
2021-10-31 17:26:00,,0831.7,5.01,0.00,26.0,25.2,00.0,35.1,27.8,16.7,0000.0,0008.18,0003.76,0003.19
2021-10-31 17:27:00,,0831.7,5.01,0.00,26.0,25.2,00.0,35.1,27.9,16.7,0000.0,0008.15,0003.73,0003.18
2021-10-31 17:28:00,,0831.7,4.99,0.00,26.0,25.2,00.0,35.1,27.9,16.7,0000.0,0008.14,0003.72,0003.19
2021-10-31 17:29:00,,0831.7,5.00,0.00,26.0,25.2,00.0,35.1,27.9,16.8,0000.0,0008.15,0003.74,0003.19
2021-10-31 17:30:00,,0831.7,5.01,0.00,26.0,25.2,00.0,35.1,27.9,16.7,0000.0,0008.35,0003.72,0003.18
2021-10-31 17:31:00,,0831.7,5.00,0.00,26.0,25.2,00.0,35.1,27.9,16.7,0000.0,0008.48,0003.73,0003.18
2021-10-31 17:32:00,,0831.7,5.00,0.00,26.0,25.2,00.0,35.1,27.9,16.8,0000.0,0008.47,0003.73,0003.16
2021-10-31 17:33:00,,0831.7,4.99,0.00,26.0,25.2,00.0,35.1,27.8,16.8,0000.0,0008.37,0003.69,0003.15
2021-10-31 17:34:00,,0831.7,5.00,0.00,26.0,25.2,00.0,35.1,27.8,16.8,0000.0,0008.36,0003.68,0003.14
2021-10-31 17:35:00,,0831.8,4.99,0.00,26.0,25.2,00.0,35.1,27.8,16.8,0000.0,0008.11,0003.63,0003.15
2021-10-31 17:36:00,,0831.7,5.01,0.00,26.0,25.2,00.0,35.1,27.8,16.9,0000.0,0007.40,0003.61,0003.16
2021-10-31 17:37:00,,0831.7,5.01,0.00,26.0,25.2,00.0,35.0,27.8,16.8,0000.0,0007.30,0003.60,0003.16
2021-10-31 17:38:00,,0831.7,5.01,0.00,26.0,25.2,00.0,35.0,27.9,16.8,0000.0,0007.52,0003.63,0003.17
2021-10-31 17:39:00,,0831.7,5.00,0.00,26.0,25.2,00.0,35.0,27.9,16.8,0000.0,0007.28,0003.61,0003.17
2021-10-31 17:40:00,,0831.7,5.01,0.00,26.0,25.2,00.0,35.0,27.8,16.8,0000.0,0006.97,0003.56,0003.16
2021-10-31 17:41:00,,0831.7,5.02,0.00,26.0,25.2,00.0,35.0,27.9,16.8,0000.0,0006.64,0003.55,0003.16
2021-10-31 17:42:00,,0831.8,4.98,0.00,26.0,25.2,00.0,35.0,27.9,16.7,0000.0,0006.23,0003.54,0003.16
2021-10-31 17:43:00,,0831.7,5.02,0.00,26.0,25.2,00.0,35.0,27.9,16.7,0000.0,0006.06,0003.50,0003.15
2021-10-31 17:44:00,,0831.7,4.99,0.00,26.0,25.2,00.0,35.1,27.9,16.7,0000.0,0005.91,0003.47,0003.16
2021-10-31 17:45:00,,0831.7,4.99,0.00,26.1,25.2,00.0,35.1,27.9,16.7,0000.0,0005.85,0003.46,0003.16
2021-10-31 17:46:00,,0831.7,5.01,0.00,26.1,25.2,00.0,35.1,27.9,16.7,0000.0,0005.95,0003.49,0003.18
2021-10-31 17:47:00,,0831.6,5.01,0.00,26.1,25.2,00.0,35.1,27.9,16.8,0000.0,0005.98,0003.50,0003.19
2021-10-31 17:48:00,,0831.6,4.99,0.00,26.1,25.2,00.0,35.1,27.9,16.8,0000.0,0006.04,0003.50,0003.19
2021-10-31 17:49:00,,0831.5,5.00,0.00,26.1,25.2,00.0,35.1,27.9,16.7,0000.0,0005.69,0003.46,0003.18
2021-10-31 17:50:00,,0831.5,5.00,0.00,26.0,25.2,00.0,35.1,27.9,16.7,0000.0,0005.79,0003.49,0003.19
2021-10-31 17:51:00,,0831.5,4.99,0.00,26.1,25.2,00.0,35.1,27.9,16.7,0000.0,0006.03,0003.53,0003.20
2021-10-31 17:52:00,,0831.6,5.00,0.00,26.1,25.2,00.0,35.1,27.9,16.7,0000.0,0005.77,0003.53,0003.22
2021-10-31 17:53:00,,0831.5,5.01,0.00,26.1,25.2,00.0,35.1,27.9,16.6,0000.0,0006.05,0003.55,0003.24
2021-10-31 17:54:00,,0831.5,4.99,0.00,26.1,25.2,00.0,35.1,27.9,16.6,0000.0,0007.01,0003.59,0003.25
2021-10-31 17:55:00,,0831.5,5.00,0.00,26.1,25.2,00.0,35.1,27.9,16.6,0000.0,0007.29,0003.65,0003.28
2021-10-31 17:56:00,,0831.5,5.00,0.00,26.1,25.2,00.0,35.1,27.9,16.6,0000.0,0007.41,0003.69,0003.32
2021-10-31 17:57:00,,0831.5,5.00,0.00,26.1,25.2,00.0,35.1,27.9,16.6,0000.0,0007.48,0003.73,0003.34
2021-10-31 17:58:00,,0831.5,5.00,0.00,26.1,25.2,00.0,35.1,27.9,16.6,0000.0,0007.50,0003.75,0003.35
2021-10-31 17:59:00,,0831.5,5.01,0.00,26.1,25.2,00.0,35.1,27.9,16.5,0000.0,0007.47,0003.75,0003.36
